"2009-09-29 00:00:00",1281890,3.391,328.1,4.061,0.43,14.9,106.4538,15.8,16.9,33.4,0,110.8,13.21,16.60,290.1
"2009-09-29 00:00:30",1281891,4.17,337.4,2.252,0.153,14.93,106.4524,15.79,16.89,33.5,0,110.8,13.21,16.60,299.4
"2009-09-29 00:01:00",1281892,4.354,335,5.09,0.129,14.96,106.4563,15.8,16.89,33.43,0,110.8,13.21,16.61,297.0
"2009-09-29 00:01:30",1281893,3.899,323.2,3.171,0.316,15.05,106.4643,15.82,16.88,33.47,0,110.8,13.21,16.63,285.2
"2009-09-29 00:02:00",1281894,3.421,328.8,3.88,0.249,15,106.4669,15.83,16.88,33.45,0,110.8,13.22,16.64,290.8
"2009-09-29 00:02:30",1281895,4.294,334.2,2.713,0.249,14.98,106.4545,15.8,16.85,33.39,0,110.8,13.21,16.60,296.2
"2009-09-29 00:03:00",1281896,4.496,329.8,3.855,0.292,14.98,106.4463,15.78,16.85,33.48,0,110.8,13.21,16.58,291.8
"2009-09-29 00:03:30",1281897,4.304,331.1,3.749,0.168,15.01,106.445,15.77,16.84,33.54,0,110.8,13.21,16.58,293.1
"2009-09-29 00:04:00",1281898,4.241,331.9,3.006,0.119,15.05,106.4462,15.78,16.84,33.54,0,110.8,13.21,16.58,293.9
"2009-09-29 00:04:30",1281899,4.098,332.2,2.157,0.172,15,106.4419,15.77,16.81,33.54,0,110.8,13.21,16.57,294.2
"2009-09-29 00:05:00",1281900,4.023,333.4,2.091,0.327,15.12,106.4287,15.73,16.81,33.56,0,110.8,13.21,16.54,295.4
"2009-09-29 00:05:30",1281901,4.219,334.5,3.926,0.386,15.1,106.413,15.69,16.8,33.59,0,110.8,13.21,16.50,296.5
"2009-09-29 00:06:00",1281902,4.065,335.3,1.823,0.216,15.17,106.4124,15.69,16.78,33.76,0,110.8,13.21,16.50,297.3
"2009-09-29 00:06:30",1281903,4.293,336.1,3.441,0.233,15.13,106.4116,15.69,16.76,33.78,0,110.8,13.21,16.49,298.1
"2009-09-29 00:07:00",1281904,4.115,331,1.672,0.117,15.1,106.3955,15.65,16.76,33.67,0,110.8,13.21,16.45,293.0
"2009-09-29 00:07:30",1281905,3.99,329.8,2.697,0.21,15.09,106.3826,15.61,16.73,33.71,0,110.8,13.22,16.42,291.8
"2009-09-29 00:08:00",1281906,4.203,329.5,2.823,0.272,15.14,106.3787,15.6,16.73,33.61,0,110.8,13.22,16.41,291.5
"2009-09-29 00:08:30",1281907,4.1,334.1,1.431,0.096,15.12,106.3787,15.6,16.72,33.62,0,110.7,13.22,16.41,296.1
"2009-09-29 00:09:00",1281908,4.144,335.7,1.992,0.095,15.23,106.3781,15.6,16.7,33.65,0,110.7,13.22,16.41,297.7
"2009-09-29 00:09:30",1281909,4.199,337.3,2.104,0.14,15.24,106.3633,15.56,16.7,33.75,0,110.7,13.22,16.37,299.3
"2009-09-29 00:10:00",1281910,3.903,340,4.082,0.267,15.21,106.3597,15.55,16.69,33.77,0,110.7,13.22,16.36,302.0
"2009-09-29 00:10:30",1281911,4.038,335.5,2.262,0.09,15.17,106.3677,15.57,16.67,33.66,0,110.7,13.23,16.38,297.5
"2009-09-29 00:11:00",1281912,4.365,333.8,1.688,0.148,15.21,106.3718,15.59,16.65,33.67,0,110.7,13.23,16.39,295.8
"2009-09-29 00:11:30",1281913,4.259,336.2,1.202,0.088,15.25,106.3705,15.58,16.64,33.77,0,110.7,13.23,16.39,298.2
"2009-09-29 00:12:00",1281914,4.002,333.9,1.023,0.115,15.15,106.3564,15.55,16.63,33.7,0,110.7,13.23,16.35,295.9
"2009-09-29 00:12:30",1281915,4.098,333.7,1.055,0.124,15.22,106.3479,15.52,16.61,33.68,0,110.7,13.23,16.33,295.7
"2009-09-29 00:13:00",1281916,3.817,331.6,1.159,0.19,15.29,106.3468,15.52,16.61,33.76,0,110.7,13.23,16.33,293.6
"2009-09-29 00:15:30",1281917,3.896,329.5,1.195,0.132,15.27,106.3456,15.52,16.59,33.62,0,110.7,13.22,16.32,291.5
"2009-09-29 00:16:00",1281918,3.721,332.1,1.172,0.1,15.32,106.3243,15.46,16.57,33.66,0,110.7,13.23,16.27,294.1
"2009-09-29 00:16:30",1281919,3.519,334,1.787,0.087,15.38,106.3139,15.44,16.55,33.74,0,110.7,13.23,16.24,296.0
"2009-09-29 00:17:00",1281920,3.411,334.3,0.808,0.064,15.35,106.3133,15.44,16.54,33.84,0,110.7,13.23,16.24,296.3
"2009-09-29 00:17:30",1281921,3.375,332.9,0.842,0.053,15.28,106.3133,15.44,16.53,33.89,0,110.7,13.23,16.24,294.9
"2009-09-29 00:18:00",1281922,3.313,331.7,1.557,0.039,15.28,106.3009,15.4,16.51,33.94,0,110.7,13.23,16.21,293.7
"2009-09-29 00:18:30",1281923,3.344,330.5,0.929,0.068,15.29,106.2846,15.36,16.5,33.98,0,110.7,13.23,16.17,292.5
"2009-09-29 00:19:00",1281924,3.343,329.5,1.505,0.059,15.33,106.2795,15.35,16.48,34.01,0,110.7,13.23,16.15,291.5
"2009-09-29 00:19:30",1281925,3.303,330.3,0.806,0.048,15.35,106.2807,15.35,16.48,34.06,0,110.7,13.23,16.16,292.3
"2009-09-29 00:20:00",1281926,3.196,329.5,0.957,0.062,15.34,106.2817,15.35,16.47,34.1,0,110.7,13.23,16.16,291.5
"2009-09-29 00:20:30",1281927,3.174,328.5,1.193,0.074,15.33,106.2802,15.35,16.45,34.13,0,110.7,13.23,16.16,290.5
"2009-09-29 00:21:00",1281928,3.134,329.1,1.18,0.059,15.32,106.2668,15.32,16.44,34.14,0,110.7,13.23,16.12,291.1
"2009-09-29 00:21:30",1281929,3.299,329.9,1.326,0.087,15.36,106.2537,15.28,16.43,34.13,0,110.7,13.23,16.09,291.9
"2009-09-29 00:22:00",1281930,3.147,327.9,1.161,0.095,15.35,106.2553,15.29,16.41,34.14,0,110.7,13.23,16.09,289.9
"2009-09-29 00:22:30",1281931,3.267,327.3,1.407,0.083,15.4,106.2625,15.31,16.41,34.13,0,110.7,13.23,16.11,289.3
"2009-09-29 00:23:00",1281932,2.982,325,1.277,0.122,15.46,106.2655,15.31,16.4,34.11,0,110.7,13.24,16.12,287.0
"2009-09-29 00:23:30",1281933,2.627,327.6,1.519,0.086,15.56,106.2696,15.32,16.38,34.2,0,110.7,13.24,16.13,289.6
"2009-09-29 00:24:00",1281934,2.631,326.5,1.9,0.069,15.48,106.2604,15.3,16.38,34.24,0,110.7,13.24,16.11,288.5
"2009-09-29 00:24:30",1281935,2.546,330.2,2.075,0.088,15.54,106.2542,15.28,16.37,34.27,0,110.7,13.24,16.09,292.2
"2009-09-29 00:25:00",1281936,2.682,330.5,1.664,0.105,15.57,106.249,15.27,16.36,34.3,0,110.6,13.24,16.08,292.5
"2009-09-29 00:25:30",1281937,2.728,331.2,1.545,0.13,15.55,106.2479,15.27,16.36,34.28,0,110.6,13.25,16.07,293.2
"2009-09-29 00:26:00",1281938,3.077,335.7,1.225,0.065,15.51,106.2479,15.27,16.34,34.27,0,110.7,13.25,16.07,297.7
"2009-09-29 00:26:30",1281939,3.174,334.7,2.014,0.07,15.56,106.2479,15.27,16.34,34.28,0,110.7,13.25,16.07,296.7
"2009-09-29 00:27:00",1281940,3.264,328.8,2.087,0.07,15.44,106.2479,15.27,16.33,34.29,0,110.6,13.25,16.07,290.8
"2009-09-29 00:27:30",1281941,3.516,326.1,1.406,0.094,15.31,106.2479,15.27,16.32,34.37,0,110.6,13.25,16.07,288.1
"2009-09-29 00:28:00",1281942,3.778,326.7,1.406,0.097,15.47,106.2479,15.27,16.31,34.55,0,110.6,13.25,16.07,288.7
"2009-09-29 00:28:30",1281943,3.953,325.7,1.424,0.074,15.44,106.2397,15.25,16.31,34.78,0,110.6,13.25,16.05,287.7
"2009-09-29 00:29:00",1281944,3.788,323.2,0.858,0.182,15.4,106.2262,15.21,16.3,34.94,0,110.6,13.25,16.02,285.2
"2009-09-29 00:29:30",1281945,3.73,323.2,0.74,0.1,15.41,106.2175,15.19,16.29,34.89,0,110.6,13.26,16.00,285.2
"2009-09-29 00:30:00",1281946,3.729,324.1,1.198,0.069,15.47,106.2141,15.18,16.28,34.89,0,110.6,13.26,15.99,286.1
"2009-09-29 00:30:30",1281947,3.85,327.3,1.445,0.115,15.49,106.2141,15.18,16.26,34.88,0,110.6,13.26,15.99,289.3
"2009-09-29 00:31:00",1281948,4.274,329.4,1.159,0.105,15.52,106.2153,15.18,16.26,34.79,0,110.6,13.26,15.99,291.4
"2009-09-29 00:31:30",1281949,4.325,331.6,1.442,0.102,15.49,106.2165,15.19,16.25,34.72,0,110.6,13.26,15.99,293.6
"2009-09-29 00:32:00",1281950,4.191,330.1,2.006,0.118,15.49,106.2156,15.19,16.25,34.71,0,110.6,13.26,15.99,292.1
"2009-09-29 00:32:30",1281951,4.288,328.6,0.994,0.101,15.58,106.2074,15.16,16.24,34.68,0,110.6,13.26,15.97,290.6
"2009-09-29 00:33:00",1281952,4.286,330.4,0.884,0.06,15.64,106.2035,15.15,16.21,34.67,0,110.6,13.26,15.96,292.4
"2009-09-29 00:33:30",1281953,4.322,330.2,0.801,0.053,15.68,106.2066,15.16,16.21,34.72,0,110.6,13.26,15.97,292.2
"2009-09-29 00:34:00",1281954,4.254,332.2,0.658,0.048,15.67,106.2075,15.16,16.2,34.74,0,110.6,13.26,15.97,294.2
"2009-09-29 00:34:30",1281955,4.741,334.5,6.212,1.016,16.48,106.2086,15.17,16.19,34.72,0,110.6,13.22,15.97,296.5
"2009-09-29 00:35:00",1281956,4.842,336.5,5.657,1.123,16.67,106.1945,15.13,16.33,34.9,0,110.6,13.22,15.94,298.5
"2009-09-29 00:35:30",1281957,5.005,337.2,6.094,1.341,16.73,106.1821,15.1,16.16,34.82,0,110.6,13.22,15.90,299.2
"2009-09-29 00:36:00",1281958,3.96,332.4,0.867,0.092,14.93,106.1824,15.1,16.15,34.79,0,110.6,13.26,15.90,294.4
"2009-09-29 00:36:30",1281959,4.014,333.6,0.804,0.078,14.89,106.1805,15.1,16.24,34.97,0,110.6,13.26,15.90,295.6
"2009-09-29 00:37:00",1281960,5.131,337.9,8.43,1.43,16.91,106.156,15.03,16.17,34.93,0,110.6,13.22,15.84,299.9
"2009-09-29 00:37:30",1281961,5.074,336,6.929,1.405,16.51,106.1487,15.01,16.16,34.87,0,110.6,13.22,15.82,298.0
"2009-09-29 00:38:00",1281962,5.217,338.6,6.688,1.416,17.61,106.1472,15.01,16.38,35.13,0,110.6,13.22,15.81,300.6
"2009-09-29 00:38:30",1281963,4.829,336,7.308,1.373,16.32,106.1258,14.96,16.12,34.94,0,110.6,13.22,15.76,298.0
"2009-09-29 00:39:00",1281964,3.567,328.6,0.693,0.044,13.57,106.1154,14.93,16.02,34.85,0,110.6,13.26,15.73,290.6
"2009-09-29 00:39:30",1281965,3.557,328.8,0.753,0.078,13.45,106.1149,14.93,16.01,34.83,0,110.6,13.26,15.73,290.8
"2009-09-29 00:40:00",1281966,3.506,328.6,0.869,0.056,13.6,106.1013,14.89,15.98,34.84,0,110.6,13.26,15.70,290.6
"2009-09-29 00:40:30",1281967,3.436,329.3,0.727,0.044,13.9,106.0833,14.85,15.98,34.87,0,110.6,13.26,15.65,291.3
"2009-09-29 00:41:00",1281968,3.461,328.8,0.818,0.072,14.22,106.0811,14.84,15.95,34.93,0,110.5,13.26,15.64,290.8
"2009-09-29 00:41:30",1281969,3.349,327.6,0.71,0.071,14.37,106.0777,14.83,15.93,34.97,0,110.5,13.27,15.64,289.6
"2009-09-29 00:42:00",1281970,3.282,327.5,0.777,0.037,14.65,106.0572,14.78,15.92,35.01,0,110.5,13.27,15.58,289.5
"2009-09-29 00:42:30",1281971,3.256,326.3,0.954,0.044,14.99,106.0527,14.77,15.89,35.05,0,110.5,13.27,15.57,288.3
"2009-09-29 00:43:00",1281972,3.194,326,0.948,0.041,15.36,106.0628,14.79,15.87,35.09,0,110.5,13.27,15.60,288.0
"2009-09-29 00:43:30",1281973,3.198,326,0.589,0.061,15.48,106.0539,14.77,15.86,35.14,0,110.5,13.27,15.57,288.0
"2009-09-29 00:44:00",1281974,3.437,323.5,1.45,0.092,15.36,106.0401,14.74,15.83,35.17,0,110.5,13.27,15.54,285.5
"2009-09-29 00:44:30",1281975,3.932,326.2,5.23,0.976,16.63,106.0461,14.75,15.96,35.38,0,110.5,13.24,15.55,288.2
"2009-09-29 00:45:00",1281976,4.078,325.3,5.575,1.056,15.89,106.0458,14.75,15.8,35.28,0,110.5,13.24,15.55,287.3
"2009-09-29 00:45:30",1281977,3.592,325.8,0.906,0.056,14.9,106.0352,14.72,15.77,35.3,0,110.5,13.28,15.53,287.8
"2009-09-29 00:46:00",1281978,3.691,326.1,0.454,0.078,14.84,106.0186,14.68,15.75,35.4,0,110.5,13.28,15.48,288.1
"2009-09-29 00:46:30",1281979,3.865,326.2,0.324,0.048,14.94,106.0155,14.67,15.73,35.48,0,110.5,13.28,15.48,288.2
"2009-09-29 00:47:00",1281980,3.798,326.6,0.704,0.093,14.99,106.0153,14.67,15.72,35.49,0,110.5,13.28,15.48,288.6
"2009-09-29 00:47:30",1281981,5.04,331.1,6.692,1.414,17.36,105.9998,14.63,15.84,35.68,0,110.5,13.24,15.44,293.1
"2009-09-29 00:48:00",1281982,3.815,325.4,3.714,0.502,15.5,105.9826,14.59,15.79,35.68,0,110.5,13.28,15.39,287.4
"2009-09-29 00:48:30",1281983,5.131,332.2,6.812,1.386,17.63,105.9817,14.59,15.87,35.79,0,110.5,13.25,15.39,294.2
"2009-09-29 00:49:00",1281984,5.123,330.3,6.967,1.379,17.47,105.9817,14.59,15.88,35.86,0,110.5,13.25,15.39,292.3
"2009-09-29 00:49:30",1281985,3.558,321.4,0.662,0.075,13.85,105.9733,14.56,15.62,35.68,0,110.5,13.28,15.37,283.4
"2009-09-29 00:50:00",1281986,3.46,319.7,0.909,0.04,13.54,105.9519,14.51,15.62,35.71,0,110.5,13.28,15.31,281.7
"2009-09-29 00:50:30",1281987,3.431,319.4,0.627,0.041,13.65,105.948,14.5,15.59,35.74,0,110.5,13.28,15.30,281.4
"2009-09-29 00:51:00",1281988,3.45,318.3,0.453,0.063,14.01,105.948,14.5,15.58,35.78,0,110.5,13.28,15.30,280.3
"2009-09-29 00:51:30",1281989,3.516,317.9,0.831,0.053,14.35,105.9454,14.49,15.57,35.82,0,110.5,13.28,15.30,279.9
"2009-09-29 00:52:00",1281990,3.557,318.1,0.641,0.047,14.57,105.9319,14.46,15.55,35.84,0,110.5,13.28,15.26,280.1
"2009-09-29 00:52:30",1281991,3.65,316.6,0.601,0.028,14.88,105.9168,14.42,15.53,35.88,0,110.5,13.28,15.22,278.6
"2009-09-29 00:53:00",1281992,3.599,317.5,1.593,0.031,15.24,105.9237,14.44,15.64,35.99,0,110.5,13.28,15.24,279.5
"2009-09-29 00:53:30",1281993,4.711,323.1,6.703,1.305,16.82,105.9315,14.46,15.55,35.95,0,110.5,13.25,15.26,285.1
"2009-09-29 00:54:00",1281994,4.097,318.9,4.7,0.88,15.73,105.9302,14.45,15.62,36.02,0,110.5,13.25,15.26,280.9
"2009-09-29 00:54:30",1281995,3.874,317.8,0.947,0.038,14.54,105.9182,14.42,15.49,35.91,0,110.5,13.28,15.23,279.8
"2009-09-29 00:55:00",1281996,3.823,316.7,1.166,0.035,14.61,105.9107,14.4,15.46,35.92,0,110.5,13.28,15.21,278.7
"2009-09-29 00:55:30",1281997,3.824,315.4,0.894,0.061,14.78,105.9123,14.41,15.45,35.94,0,110.5,13.29,15.21,277.4
"2009-09-29 00:56:00",1281998,3.785,316.6,1.612,0.083,14.79,105.9153,14.42,15.44,35.95,0,110.5,13.29,15.22,278.6
"2009-09-29 00:56:30",1281999,3.864,316.2,1.007,0.053,14.92,105.9147,14.41,15.46,36.02,0,110.4,13.29,15.22,278.2
"2009-09-29 00:57:00",1282000,4.949,323,6.849,1.39,17.23,105.9029,14.38,15.53,36.12,0,110.4,13.25,15.19,285.0
"2009-09-29 00:57:30",1282001,3.873,316.3,0.687,0.056,14.93,105.884,14.34,15.43,36.07,0,110.4,13.29,15.14,278.3
"2009-09-29 00:58:00",1282002,3.935,318.7,3.768,0.725,15.12,105.8823,14.33,15.39,36.05,0,110.5,13.26,15.13,280.7
"2009-09-29 00:58:30",1282003,5.59,326,6.464,1.365,18.11,105.8823,14.33,15.54,36.31,0,110.5,13.26,15.13,288.0
"2009-09-29 00:59:00",1282004,5.018,323.1,7.076,1.402,17.18,105.8823,14.33,15.53,36.34,0,110.5,13.26,15.13,285.1
"2009-09-29 00:59:30",1282005,3.58,316.5,0.896,0.071,14.37,105.8773,14.32,15.34,36.23,0,110.5,13.3,15.12,278.5
"2009-09-29 01:00:00",1282006,3.454,317.8,0.647,0.068,13.91,105.8683,14.3,15.32,36.26,0,110.4,13.3,15.10,279.8
"2009-09-29 01:00:30",1282007,3.362,317.5,0.579,0.04,13.92,105.8514,14.25,15.32,36.27,0,110.4,13.3,15.05,279.5
"2009-09-29 01:01:00",1282008,3.358,315.9,0.824,0.052,14.12,105.8485,14.24,15.31,36.32,0,110.4,13.3,15.05,277.9
"2009-09-29 01:01:30",1282009,3.203,316.6,1.018,0.046,14.31,105.8485,14.24,15.39,36.43,0,110.4,13.3,15.05,278.6
"2009-09-29 01:02:00",1282010,4.314,320.1,6.675,1.365,16.36,105.848,14.24,15.36,36.44,0,110.4,13.27,15.05,282.1
"2009-09-29 01:02:30",1282011,3.399,315.1,4.782,0.715,15.23,105.8412,14.23,15.4,36.55,0,110.4,13.27,15.03,277.1
"2009-09-29 01:03:00",1282012,3.126,312.6,0.516,0.049,14.43,105.8226,14.18,15.28,36.43,0,110.4,13.3,14.98,274.6
"2009-09-29 01:03:30",1282013,3.12,311.1,1.166,0.033,14.46,105.8153,14.16,15.26,36.44,0,110.4,13.3,14.96,273.1
"2009-09-29 01:04:00",1282014,3.115,309,0,0.029,14.45,105.8156,14.16,15.25,36.47,0,110.4,13.3,14.96,271.0
"2009-09-29 01:04:30",1282015,3.151,308.2,0.524,0.035,14.64,105.8204,14.17,15.23,36.5,0,110.4,13.3,14.97,270.2
"2009-09-29 01:05:00",1282016,3.134,307.1,0.532,0.012,14.78,105.8219,14.18,15.22,36.52,0,110.4,13.3,14.98,269.1
"2009-09-29 01:05:30",1282017,3.091,306.9,0.523,0.053,14.9,105.8183,14.17,15.22,36.56,0,110.4,13.31,14.97,268.9
"2009-09-29 01:06:00",1282018,3.175,306.8,0.714,0.083,15.03,105.8045,14.13,15.28,36.66,0,110.4,13.31,14.93,268.8
"2009-09-29 01:06:30",1282019,4.454,310.7,6.673,1.313,17.05,105.8024,14.13,15.28,36.66,0,110.4,13.27,14.93,272.7
"2009-09-29 01:07:00",1282020,3.427,304.9,0.426,0.049,14.9,105.8072,14.14,15.19,36.59,0,110.4,13.31,14.94,266.9
"2009-09-29 01:07:30",1282021,3.39,304,0.396,0.032,14.8,105.8098,14.15,15.18,36.63,0,110.4,13.31,14.95,266.0
"2009-09-29 01:08:00",1282022,4.262,308.9,6.362,1.282,16,105.8149,14.16,15.17,36.67,0,110.4,13.27,14.96,270.9
"2009-09-29 01:08:30",1282023,4.614,311.4,7.517,1.384,17.16,105.8128,14.15,15.37,36.94,0,110.4,13.27,14.95,273.4
"2009-09-29 01:09:00",1282024,5.252,312.9,7.229,1.368,17.54,105.7987,14.12,15.29,36.88,0,110.4,13.27,14.92,274.9
"2009-09-29 01:09:30",1282025,3.527,304.5,1.103,0.081,14.03,105.7865,14.09,15.14,36.77,0,110.4,13.3,14.89,266.5
"2009-09-29 01:10:00",1282026,3.523,303.1,1.06,0.048,13.89,105.7829,14.08,15.14,36.86,0,110.4,13.3,14.88,265.1
"2009-09-29 01:10:30",1282027,4.76,308.9,7.166,1.342,16.06,105.7829,14.08,15.29,36.96,0,110.4,13.27,14.88,270.9
"2009-09-29 01:11:00",1282028,3.563,303.5,0.503,0.026,13.86,105.7829,14.08,15.19,36.86,0,110.4,13.3,14.88,265.5
"2009-09-29 01:11:30",1282029,3.528,303.9,0.942,0.031,13.67,105.7829,14.08,15.11,36.82,0,110.4,13.3,14.88,265.9
"2009-09-29 01:12:00",1282030,3.468,304.4,0.778,0.07,13.73,105.7829,14.08,15.1,36.81,0,110.4,13.3,14.88,266.4
"2009-09-29 01:12:30",1282031,3.33,303.3,0.45,0.032,13.79,105.7809,14.07,15.09,36.86,0,110.4,13.3,14.87,265.3
"2009-09-29 01:13:00",1282032,3.413,305.3,0.842,0.035,14.15,105.7671,14.04,15.08,36.9,0,110.4,13.3,14.84,267.3
"2009-09-29 01:13:30",1282033,3.387,307.3,0.377,0.072,14.56,105.7533,14,15.07,36.91,0,110.4,13.31,14.80,269.3
"2009-09-29 01:14:00",1282034,3.456,309,0.97,0.056,14.75,105.7491,13.99,15.09,36.93,0,110.4,13.31,14.79,271.0
"2009-09-29 01:14:30",1282035,3.436,310.3,0.92,0.082,14.96,105.7491,13.99,15.06,36.98,0,110.4,13.32,14.79,272.3
"2009-09-29 01:15:00",1282036,3.605,311.9,4.268,0.7,15.77,105.7491,13.99,15.18,37.16,0,110.4,13.28,14.79,273.9
"2009-09-29 01:15:30",1282037,4.219,313.7,6.433,1.309,16.68,105.7491,13.99,15.1,37.08,0,110.4,13.28,14.79,275.7
"2009-09-29 01:16:00",1282038,3.691,314.1,5.5,0.976,16.29,105.7491,13.99,15.15,37.12,0,110.4,13.28,14.79,276.1
"2009-09-29 01:16:30",1282039,3.323,312.1,1.169,0.065,14.92,105.7485,13.99,15.02,37.05,0,110.4,13.32,14.79,274.1
"2009-09-29 01:17:00",1282040,3.367,313.4,0.632,0.062,14.72,105.7426,13.97,15.1,37.17,0,110.4,13.32,14.77,275.4
"2009-09-29 01:17:30",1282041,4.722,321.9,6.912,1.341,17.19,105.7384,13.96,15.1,37.23,0,110.4,13.28,14.76,283.9
"2009-09-29 01:18:00",1282042,4.207,318.2,6.471,1.218,16.16,105.7246,13.93,15.2,37.34,0,110.4,13.28,14.73,280.2
"2009-09-29 01:18:30",1282043,5.233,325.6,6.243,1.293,18.16,105.717,13.91,15.2,37.33,0,110.4,13.28,14.71,287.6
"2009-09-29 01:19:00",1282044,4.394,318.9,6.12,1.278,15.18,105.7179,13.91,15.03,37.21,0,110.4,13.28,14.71,280.9
"2009-09-29 01:19:30",1282045,3.535,314.9,0.318,0.057,13.28,105.7224,13.92,15.02,37.21,0,110.4,13.32,14.72,276.9
"2009-09-29 01:20:00",1282046,3.563,314.8,0.229,0.036,13.24,105.7263,13.93,14.97,37.16,0,110.4,13.32,14.73,276.8
"2009-09-29 01:20:30",1282047,3.467,315.9,0.635,0.054,13.31,105.7295,13.94,14.96,37.18,0,110.4,13.32,14.74,277.9
"2009-09-29 01:21:00",1282048,3.471,315.3,0.629,0.061,13.55,105.7355,13.96,14.96,37.22,0,110.4,13.32,14.76,277.3
"2009-09-29 01:21:30",1282049,3.513,313.8,1.054,0.077,13.94,105.7345,13.95,14.94,37.23,0,110.4,13.32,14.75,275.8
"2009-09-29 01:22:00",1282050,3.587,314.4,0.592,0.052,14.23,105.72,13.92,14.94,37.29,0,110.4,13.32,14.72,276.4
"2009-09-29 01:22:30",1282051,3.605,314.5,0.338,0.041,14.59,105.7179,13.91,14.94,37.32,0,110.4,13.32,14.71,276.5
"2009-09-29 01:23:00",1282052,3.595,313.3,0.905,0.037,14.82,105.7131,13.9,14.92,37.34,0,110.4,13.33,14.70,275.3
"2009-09-29 01:23:30",1282053,4.766,317.2,6.992,1.381,16.88,105.7121,13.9,15.01,37.47,0,110.4,13.29,14.70,279.2
"2009-09-29 01:24:00",1282054,4.461,315.5,6.646,1.278,16.87,105.7148,13.9,15.06,37.59,0,110.4,13.29,14.70,277.5
"2009-09-29 01:24:30",1282055,3.561,308.8,0.635,0.036,14.85,105.7142,13.9,14.91,37.52,0,110.4,13.33,14.70,270.8
"2009-09-29 01:25:00",1282056,3.432,307.5,0.456,0.057,14.95,105.716,13.91,14.91,37.59,0,110.4,13.32,14.71,269.5
"2009-09-29 01:25:30",1282057,4.527,313.4,7.155,1.451,16.92,105.7169,13.91,14.93,37.65,0,110.4,13.28,14.71,275.4
"2009-09-29 01:26:00",1282058,4.138,312.8,7.102,1.343,17.32,105.7172,13.91,15.09,37.79,0,110.4,13.28,14.71,274.8
"2009-09-29 01:26:30",1282059,3.203,306,3.617,0.814,15.04,105.7163,13.91,14.9,37.6,0,110.4,13.28,14.71,268.0
"2009-09-29 01:27:00",1282060,4.377,310.2,6.546,1.333,17.92,105.7169,13.91,15.12,37.83,0,110.3,13.28,14.71,272.2
"2009-09-29 01:27:30",1282061,3.435,303.7,5.345,1.116,15.4,105.7127,13.9,15.03,37.76,0,110.4,13.28,14.70,265.7
"2009-09-29 01:28:00",1282062,3.984,306.6,7.362,1.357,16.06,105.7065,13.88,14.98,37.71,0,110.3,13.28,14.68,268.6
"2009-09-29 01:28:30",1282063,2.844,298.5,0.674,0.036,13.36,105.6983,13.86,14.88,37.68,0,110.3,13.32,14.66,260.5
"2009-09-29 01:29:00",1282064,2.872,297,0.32,0.019,13.34,105.6929,13.85,14.88,37.74,0,110.3,13.32,14.65,259.0
"2009-09-29 01:29:30",1282065,2.879,295.8,0.552,0.004,13.64,105.6907,13.84,14.88,37.79,0,110.3,13.32,14.64,257.8
"2009-09-29 01:30:00",1282066,2.919,293.3,0.974,0.036,14.02,105.6862,13.83,14.86,37.81,0,110.3,13.32,14.63,255.3
"2009-09-29 01:30:30",1282067,2.953,292.2,0.267,0.031,14.36,105.685,13.83,14.87,37.85,0,110.3,13.33,14.63,254.2
"2009-09-29 01:31:00",1282068,2.948,291.9,0.544,0.025,14.64,105.6833,13.82,14.86,37.86,0,110.3,13.33,14.62,253.9
"2009-09-29 01:31:30",1282069,2.916,291.3,0.736,0.037,14.82,105.6833,13.82,14.86,37.86,0,110.3,13.33,14.62,253.3
"2009-09-29 01:32:00",1282070,2.877,289.8,0.331,0.003,14.89,105.6833,13.82,14.88,37.85,0,110.3,13.33,14.62,251.8
"2009-09-29 01:32:30",1282071,2.879,288.4,0.345,0.014,15.05,105.6833,13.82,14.87,37.87,0,110.3,13.33,14.62,250.4
"2009-09-29 01:33:00",1282072,2.893,287.8,0.547,0.026,15.24,105.6833,13.82,14.87,37.87,0,110.3,13.33,14.62,249.8
"2009-09-29 01:33:30",1282073,2.915,287.7,0.505,0.036,15.38,105.6833,13.82,14.87,37.86,0,110.3,13.33,14.62,249.7
"2009-09-29 01:34:00",1282074,2.946,288.3,0.425,0.02,15.48,105.6833,13.82,14.86,37.83,0,110.3,13.33,14.62,250.3
"2009-09-29 01:34:30",1282075,2.96,289.1,0.423,0.021,15.59,105.6833,13.82,14.86,37.82,0,110.3,13.34,14.62,251.1
"2009-09-29 01:35:00",1282076,2.953,288.4,0.726,0.003,15.65,105.6833,13.82,14.87,37.81,0,110.3,13.34,14.62,250.4
"2009-09-29 01:35:30",1282077,2.861,286.6,0.833,0.072,15.72,105.6833,13.82,14.87,37.81,0,110.3,13.34,14.62,248.6
"2009-09-29 01:36:00",1282078,2.775,286.2,1.002,0.084,15.73,105.6836,13.82,14.87,37.84,0,110.3,13.34,14.62,248.2
"2009-09-29 01:36:30",1282079,3.614,288.8,6.588,1.323,17.26,105.6833,13.82,14.9,37.89,0,110.3,13.3,14.62,250.8
"2009-09-29 01:37:00",1282080,3.66,289.5,7.096,1.362,18.02,105.6833,13.82,15.02,38.07,0,110.3,13.3,14.62,251.5
"2009-09-29 01:37:30",1282081,2.46,279.9,1.149,0.023,15.69,105.6833,13.82,14.86,37.98,0,110.3,13.34,14.62,241.9
"2009-09-29 01:38:00",1282082,2.407,278.8,0.397,0.037,15.54,105.6833,13.82,14.87,38.01,0,110.3,13.34,14.62,240.8
"2009-09-29 01:38:30",1282083,2.358,279,0.387,0.027,15.45,105.6833,13.82,14.87,38.04,0,110.3,13.34,14.62,241.0
"2009-09-29 01:39:00",1282084,2.32,278.4,0.523,0,15.5,105.684,13.82,14.86,38.06,0,110.3,13.34,14.62,240.4
"2009-09-29 01:39:30",1282085,2.36,278.5,0.525,0.033,15.58,105.686,13.83,14.87,38.08,0,110.3,13.34,14.63,240.5
"2009-09-29 01:40:00",1282086,2.39,278.4,0.506,0.025,15.64,105.6857,13.83,14.88,38.09,0,110.3,13.34,14.63,240.4
"2009-09-29 01:40:30",1282087,2.383,279.5,0.59,0.005,15.62,105.6875,13.83,14.88,38.1,0,110.3,13.34,14.63,241.5
"2009-09-29 01:41:00",1282088,2.392,280,0.362,0.024,15.68,105.6902,13.84,14.89,38.08,0,110.3,13.35,14.64,242.0
"2009-09-29 01:41:30",1282089,2.43,279.8,0.671,0.029,15.72,105.6902,13.84,14.88,38.08,0,110.3,13.35,14.64,241.8
"2009-09-29 01:42:00",1282090,2.447,282.2,0.724,0.018,15.76,105.6926,13.85,14.89,38.07,0,110.3,13.34,14.65,244.2
"2009-09-29 01:42:30",1282091,2.446,283.5,0.735,0.019,15.79,105.6943,13.85,14.9,38.06,0,110.3,13.34,14.65,245.5
"2009-09-29 01:43:00",1282092,2.424,284.6,0.529,0.03,15.87,105.6961,13.85,14.9,38.05,0,110.3,13.34,14.65,246.6
"2009-09-29 01:43:30",1282093,2.45,285.5,0.518,0.012,15.94,105.6967,13.86,14.91,38.04,0,110.3,13.34,14.66,247.5
"2009-09-29 01:44:00",1282094,2.451,285.9,0.502,0.01,15.99,105.6958,13.85,14.9,38.03,0,110.3,13.34,14.65,247.9
"2009-09-29 01:44:30",1282095,2.447,286.9,0.686,0.017,16.04,105.698,13.86,14.91,38.03,0,110.3,13.34,14.66,248.9
"2009-09-29 01:45:00",1282096,2.449,287.2,0.192,0.014,16.11,105.7022,13.87,14.9,38.01,0,110.3,13.34,14.67,249.2
"2009-09-29 01:45:30",1282097,2.413,287.5,0.452,0.026,16.11,105.704,13.87,14.91,38,0,110.4,13.34,14.68,249.5
"2009-09-29 01:46:00",1282098,2.364,287.1,0.47,0.036,16.13,105.7034,13.87,14.92,38.01,0,110.4,13.34,14.67,249.1
"2009-09-29 01:46:30",1282099,2.283,285.7,0.612,0.036,15.96,105.7082,13.89,14.92,38.02,0,110.4,13.34,14.69,247.7
"2009-09-29 01:47:00",1282100,2.234,284.5,0.529,0.019,15.99,105.7094,13.89,14.91,38.02,0,110.3,13.35,14.69,246.5
"2009-09-29 01:47:30",1282101,2.343,283.4,0.345,0.058,15.98,105.7112,13.89,14.92,38.04,0,110.4,13.35,14.69,245.4
"2009-09-29 01:48:00",1282102,2.396,282.4,0.589,0,15.98,105.7136,13.9,14.92,38.1,0,110.3,13.35,14.70,244.4
"2009-09-29 01:48:30",1282103,2.36,281.1,0.325,0.036,16.05,105.7171,13.91,14.92,38.14,0,110.4,13.35,14.71,243.1